FW4702 Weather Reports


Display with metric or nautical units.
time (UTC)temp
F
wind
direction
speed
MPH
gust
MPH
rain 1hr
in
rain 24hr
in
rain mn
in
humidity
%
barometer
mb
20260507225056 66 312 2.0 5.0 0.00 0.44 0.29 56 1014.9
20260507224604 66 273 1.0 4.0 0.00 0.44 0.29 57 1014.8
20260507224057 67 288 1.0 4.0 0.00 0.44 0.29 57 1014.8
20260507223600 66 0 1.0 5.0 0.00 0.44 0.29 59 1014.9
20260507223100 67 0 1.0 6.0 0.00 0.44 0.29 57 1014.8
20260507222559 67 352 1.0 7.0 0.00 0.44 0.29 57 1014.8
20260507222057 67 299 2.0 7.0 0.00 0.44 0.29 56 1014.8
20260507221557 66 59 0.0 3.0 0.00 0.44 0.29 58 1014.7
20260507221057 67 25 1.0 6.0 0.00 0.44 0.29 56 1014.7
20260507220556 67 298 1.0 6.0 0.00 0.44 0.29 57 1014.8
20260507220055 67 319 1.0 5.0 0.00 0.44 0.29 58 1014.8
20260507215559 67 285 1.0 5.0 0.00 0.52 0.29 58 1014.7
20260507215056 67 291 1.0 8.0 0.00 0.52 0.29 58 1014.7
20260507214555 67 0 1.0 8.0 0.00 0.52 0.29 60 1014.7
20260507214059 67 0 0.0 6.0 0.00 0.52 0.29 61 1014.6
20260507213556 67 292 1.0 7.0 0.00 0.52 0.29 59 1014.7
20260507213055 67 284 2.0 7.0 0.00 0.52 0.29 57 1014.6
20260507212557 66 360 1.0 6.0 0.00 0.52 0.29 57 1014.7
20260507212056 67 5 2.0 6.0 0.00 0.52 0.29 56 1014.7
20260507211557 67 0 2.0 5.0 0.00 0.52 0.29 57 1014.6
20260507211057 67 308 0.0 3.0 0.00 0.52 0.29 57 1014.6
20260507210556 67 334 1.0 5.0 0.00 0.52 0.29 60 1014.6
20260507210119 67 313 1.0 5.0 0.00 0.52 0.29 59 1014.6
20260507205557 66 316 0.0 4.0 0.00 1.08 0.29 60 1014.6
20260507205057 66 11 1.0 8.0 0.00 1.08 0.29 60 1014.7
20260507204600 66 0 1.0 8.0 0.00 1.08 0.29 59 1014.6
20260507204102 66 306 1.0 7.0 0.00 1.08 0.29 60 1014.7
20260507203557 66 323 0.0 7.0 0.00 1.08 0.29 61 1014.6
20260507203059 66 336 1.0 7.0 0.00 1.08 0.29 59 1014.7
20260507202557 66 352 1.0 6.0 0.00 1.08 0.29 60 1014.8
20260507202058 66 0 2.0 6.0 0.00 1.08 0.29 61 1014.7
20260507201602 66 351 2.0 8.0 0.00 1.08 0.29 62 1014.8
20260507201059 65 302 0.0 9.0 0.00 1.08 0.29 62 1014.9
20260507200557 66 302 1.0 10.0 0.00 1.08 0.29 62 1014.9
20260507200106 66 316 1.0 10.0 0.00 1.08 0.29 61 1014.8
20260507195558 66 298 2.0 8.0 0.00 1.16 0.29 60 1014.8
20260507195056 67 0 1.0 8.0 0.00 1.16 0.29 61 1014.6
20260507194555 68 5 1.0 9.0 0.00 1.16 0.29 60 1014.7
20260507194100 67 0 0.0 9.0 0.00 1.16 0.29 67 1014.7
20260507193558 68 314 3.0 9.0 0.00 1.16 0.29 58 1014.7
20260507193123 68 344 1.0 6.0 0.00 1.16 0.29 60 1014.7
20260507192556 67 323 2.0 5.0 0.00 1.16 0.29 60 1014.7
20260507192100 67 269 1.0 10.0 0.00 1.16 0.29 59 1014.5
20260507191600 67 304 3.0 10.0 0.00 1.16 0.29 61 1014.5
20260507191100 67 302 2.0 10.0 0.00 1.16 0.29 60 1014.6
20260507190556 67 51 2.0 8.0 0.00 1.16 0.29 60 1014.6
20260507190055 67 327 1.0 6.0 0.00 1.16 0.29 61 1014.6
20260507185556 67 317 1.0 5.0 0.00 1.31 0.29 61 1014.6
20260507185056 66 309 1.0 5.0 0.00 1.31 0.29 64 1014.6
20260507184559 65 0 1.0 5.0 0.00 1.31 0.29 66 1014.8
20260507184100 66 309 1.0 4.0 0.00 1.31 0.29 63 1014.7
20260507183556 66 81 2.0 6.0 0.00 1.31 0.29 62 1014.7
20260507183101 66 92 2.0 6.0 0.00 1.31 0.29 62 1014.7
20260507182557 66 9 1.0 6.0 0.00 1.31 0.29 63 1014.6
20260507182057 65 309 1.0 7.0 0.00 1.31 0.29 64 1014.7
20260507181557 65 0 3.0 7.0 0.00 1.31 0.29 65 1014.9
20260507181057 64 0 2.0 7.0 0.00 1.31 0.29 64 1014.8
20260507180558 64 0 2.0 6.0 0.00 1.31 0.29 64 1014.9
20260507180058 65 279 2.0 6.0 0.00 1.31 0.29 64 1015.0
20260507175559 65 285 1.0 10.0 0.00 1.67 0.29 64 1015.1
20260507175057 65 302 1.0 10.0 0.00 1.67 0.29 66 1015.1
20260507174605 64 319 4.0 10.0 0.00 1.67 0.29 65 1015.3
20260507174057 64 281 2.0 8.0 0.00 1.67 0.29 63 1015.5
20260507173556 64 17 2.0 8.0 0.00 1.67 0.29 65 1015.7
20260507173132 64 72 1.0 8.0 0.00 1.67 0.29 65 1015.7
20260507172557 63 46 4.0 8.0 0.00 1.67 0.29 65 1015.7
20260507172057 63 328 2.0 7.0 0.00 1.67 0.29 65 1015.9
20260507171601 64 325 2.0 8.0 0.00 1.67 0.29 66 1015.8
20260507171057 64 0 3.0 8.0 0.00 1.67 0.29 66 1015.9
20260507170559 63 332 1.0 11.0 0.00 1.67 0.29 66 1015.7
20260507170100 62 21 3.0 11.0 0.00 1.67 0.29 66 1015.8
20260507165556 63 0 3.0 11.0 0.00 1.68 0.29 65 1015.9
20260507165057 63 46 1.0 10.0 0.00 1.68 0.29 69 1016.0
20260507164608 62 32 2.0 11.0 0.00 1.68 0.29 66 1015.8
20260507164057 62 267 2.0 11.0 0.00 1.68 0.29 67 1015.9
20260507163558 62 316 3.0 8.0 0.00 1.68 0.29 68 1016.0
20260507163102 62 319 3.0 11.0 0.00 1.68 0.29 69 1016.1
20260507162601 61 35 2.0 11.0 0.00 1.68 0.29 70 1016.0
20260507162100 61 313 4.0 9.0 0.00 1.68 0.29 71 1015.9
20260507161610 61 269 2.0 9.0 0.00 1.68 0.29 72 1015.6
20260507161057 61 0 2.0 9.0 0.00 1.68 0.29 75 1015.8
20260507160557 60 29 2.0 9.0 0.00 1.68 0.29 72 1015.8
20260507160115 60 279 1.0 6.0 0.00 1.68 0.29 72 1015.8
20260507155556 60 50 2.0 8.0 0.00 1.68 0.29 71 1015.8
20260507155056 60 328 2.0 8.0 0.00 1.68 0.29 73 1015.8
20260507154556 60 87 2.0 8.0 0.01 1.68 0.29 77 1015.6
20260507154057 59 68 1.0 7.0 0.01 1.68 0.29 77 1015.7
20260507153556 58 33 2.0 9.0 0.01 1.68 0.29 75 1015.7
20260507153057 59 50 2.0 9.0 0.01 1.68 0.29 76 1015.8
20260507152557 58 38 3.0 9.0 0.01 1.68 0.29 76 1015.7
20260507152057 58 30 1.0 5.0 0.01 1.68 0.29 79 1015.8
20260507151557 58 68 1.0 5.0 0.01 1.68 0.29 81 1015.9
20260507151101 57 46 2.0 5.0 0.01 1.68 0.29 79 1015.7
20260507150557 57 51 0.0 8.0 0.01 1.68 0.29 82 1015.7
20260507150100 57 296 1.0 9.0 0.01 1.68 0.29 82 1015.6
20260507145557 57 325 2.0 9.0 0.01 1.68 0.29 83 1015.7
20260507145056 56 0 1.0 9.0 0.01 1.68 0.29 83 1015.6
20260507144606 56 0 1.0 8.0 0.00 1.67 0.28 84 1015.7
20260507144057 56 0 2.0 8.0 0.00 1.67 0.28 85 1015.7
20260507143557 56 259 1.0 7.0 0.00 1.67 0.28 86 1015.7
20260507143100 55 52 1.0 7.0 0.00 1.67 0.28 87 1015.7
20260507142556 55 309 2.0 5.0 0.00 1.67 0.28 87 1015.7
20260507142057 55 319 2.0 6.0 0.00 1.67 0.28 88 1015.6
20260507141615 55 88 2.0 6.0 0.00 1.67 0.28 88 1015.5
20260507141056 55 313 1.0 5.0 0.00 1.67 0.28 89 1015.4
20260507140557 55 352 2.0 5.0 0.00 1.67 0.28 89 1015.3
20260507135600 54 331 1.0 6.0 0.00 2.16 0.28 90 1015.1
20260507135057 54 300 1.0 5.0 0.00 2.16 0.28 91 1015.1
20260507134609 55 276 1.0 6.0 0.00 2.16 0.28 92 1015.0
20260507134057 54 28 1.0 6.0 0.00 2.16 0.28 91 1015.1
20260507133557 54 0 1.0 6.0 0.00 2.16 0.28 92 1015.0
20260507133108 54 328 1.0 6.0 0.00 2.16 0.28 92 1014.8
20260507132557 54 288 0.0 3.0 0.00 2.16 0.28 93 1014.6
20260507132056 54 0 1.0 7.0 0.00 2.16 0.28 93 1014.5
20260507131600 54 327 1.0 7.0 0.00 2.16 0.28 93 1014.4
20260507131057 54 304 2.0 6.0 0.00 2.16 0.28 94 1014.4
20260507130557 54 338 1.0 5.0 0.00 2.16 0.28 94 1014.3
20260507130058 54 322 1.0 5.0 0.00 2.16 0.28 94 1014.2
20260507125556 54 338 1.0 5.0 0.00 2.19 0.28 94 1014.3
20260507125056 54 24 0.0 4.0 0.00 2.19 0.28 95 1014.3
20260507124558 54 320 1.0 4.0 0.00 2.19 0.28 95 1014.3
20260507124057 54 0 0.0 3.0 0.00 2.19 0.28 95 1014.4
20260507123557 54 314 0.0 3.0 0.00 2.19 0.28 96 1014.2
20260507123056 54 0 0.0 3.0 0.00 2.19 0.28 95 1014.1
20260507122557 54 0 0.0 3.0 0.00 2.19 0.28 96 1014.1
20260507122057 53 0 1.0 3.0 0.00 2.19 0.28 96 1014.1
20260507121558 53 0 0.0 3.0 0.00 2.19 0.28 96 1014.0
20260507121057 53 334 1.0 3.0 0.00 2.19 0.28 96 1014.1
20260507120557 53 296 0.0 3.0 0.00 2.19 0.28 96 1014.1
20260507120100 53 315 0.0 3.0 0.00 2.19 0.28 96 1013.9
20260507115557 53 0 1.0 4.0 0.00 2.19 0.28 96 1013.7
20260507115056 53 0 0.0 5.0 0.00 2.19 0.28 96 1013.7
20260507114600 53 324 1.0 5.0 0.00 2.19 0.28 96 1013.6
20260507114059 53 302 1.0 5.0 0.00 2.19 0.28 96 1013.6
20260507113557 53 11 2.0 5.0 0.00 2.19 0.28 96 1013.6
20260507113055 53 297 1.0 4.0 0.00 2.19 0.28 96 1013.5
20260507112557 53 0 0.0 3.0 0.00 2.19 0.28 96 1013.5
20260507112059 53 302 1.0 5.0 0.00 2.19 0.28 96 1013.8
20260507111600 53 0 0.0 5.0 0.00 2.19 0.28 96 1013.3
20260507111100 53 307 1.0 4.0 0.00 2.19 0.28 96 1013.2
20260507110556 53 0 1.0 3.0 0.00 2.19 0.28 96 1013.1
20260507110054 53 341 0.0 2.0 0.00 2.19 0.28 96 1013.2
20260507105601 53 0 0.0 2.0 0.00 2.19 0.28 97 1013.3
20260507105056 53 0 0.0 2.0 0.00 2.19 0.28 96 1013.3
20260507104556 53 0 0.0 3.0 0.00 2.19 0.28 96 1013.1
20260507104059 53 0 0.0 3.0 0.01 2.19 0.28 96 1013.0
20260507103556 53 321 0.0 3.0 0.01 2.19 0.28 96 1013.2
20260507103055 53 0 0.0 4.0 0.01 2.19 0.28 96 1013.3
20260507102557 54 5 1.0 5.0 0.01 2.19 0.28 96 1013.2
20260507102057 54 17 0.0 5.0 0.01 2.19 0.28 96 1013.1
20260507101620 54 5 1.0 4.0 0.01 2.19 0.28 96 1013.0
20260507101058 54 0 0.0 3.0 0.01 2.19 0.28 96 1013.0
20260507100556 54 325 0.0 3.0 0.01 2.19 0.28 96 1012.8
20260507100058 54 333 0.0 4.0 0.01 2.19 0.28 96 1012.6
20260507095557 54 326 0.0 4.0 0.01 2.19 0.28 96 1012.5
20260507095056 54 41 0.0 4.0 0.01 2.19 0.28 97 1012.7
20260507094557 54 0 0.0 4.0 0.01 2.19 0.28 97 1013.2
20260507094056 54 327 1.0 4.0 0.00 2.18 0.27 97 1012.9
20260507093556 54 0 1.0 4.0 0.01 2.18 0.27 97 1013.1
20260507093100 54 352 0.0 2.0 0.03 2.18 0.27 97 1013.1
20260507092557 54 0 0.0 2.0 0.06 2.18 0.27 97 1012.7
20260507092100 54 331 0.0 2.0 0.07 2.18 0.27 97 1012.5
20260507091557 54 0 0.0 3.0 0.09 2.18 0.27 97 1012.9
20260507091056 54 352 0.0 4.0 0.15 2.18 0.27 97 1012.9
20260507090556 54 313 1.0 4.0 0.21 2.18 0.27 96 1013.1
20260507090110 54 360 0.0 3.0 0.24 2.18 0.27 96 1013.3
20260507085557 54 0 1.0 6.0 0.24 2.18 0.27 96 1013.1
20260507085058 54 342 0.0 6.0 0.24 2.18 0.27 96 1013.2
20260507084555 54 321 1.0 4.0 0.25 2.18 0.27 97 1013.1
20260507084056 54 57 1.0 4.0 0.25 2.18 0.27 96 1012.4
20260507083557 54 42 0.0 5.0 0.24 2.17 0.26 96 1012.6
20260507083056 54 294 2.0 5.0 0.22 2.15 0.24 96 1012.4
20260507082600 55 0 0.0 4.0 0.20 2.11 0.21 96 1012.9
20260507082057 55 0 1.0 8.0 0.20 2.10 0.20 96 1013.8
20260507081556 55 246 3.0 8.0 0.18 2.08 0.18 96 1013.6
20260507081056 55 13 0.0 6.0 0.12 2.03 0.12 96 1012.9
20260507080557 55 310 1.0 6.0 0.06 1.97 0.06 96 1013.8
20260507080057 55 316 1.0 5.0 0.03 1.94 0.03 96 1013.3
20260507075559 55 54 1.0 4.0 0.03 1.94 0.03 96 1012.1
20260507075056 55 298 0.0 4.0 0.03 1.94 0.03 96 1012.2
20260507074558 55 52 1.0 8.0 0.02 1.93 0.02 96 1012.2
20260507074056 55 0 1.0 8.0 0.02 1.93 0.02 96 1012.5
20260507073556 55 352 1.0 8.0 0.02 1.93 0.02 96 1012.7
20260507073053 55 0 1.0 9.0 0.02 1.93 0.02 96 1012.7
20260507072556 55 304 1.0 9.0 0.01 1.92 0.01 96 1013.3
20260507072055 55 327 3.0 9.0 0.00 1.91 0.00 96 1014.5
20260507071557 55 0 0.0 3.0 0.00 1.91 0.00 96 1013.1
20260507071057 55 0 1.0 4.0 0.00 1.91 0.00 96 1012.7
20260507070557 55 0 1.0 4.0 0.00 1.91 0.00 96 1012.6
20260507070058 55 47 1.0 4.0 0.00 1.91 0.00 96 1012.7
20260507065556 55 286 1.0 4.0 0.00 1.91 0.00 95 1013.0
20260507065056 55 5 0.0 4.0 0.00 1.91 0.00 96 1013.2
20260507064608 55 34 0.0 4.0 0.00 1.91 0.00 96 1013.3
20260507064059 55 329 1.0 6.0 0.00 1.91 0.00 96 1013.3
20260507063557 55 0 0.0 6.0 0.00 1.91 0.00 96 1013.5
20260507063057 55 346 1.0 6.0 0.00 1.91 0.00 96 1013.3
20260507062556 55 0 1.0 6.0 0.00 1.91 0.00 96 1012.8
20260507062056 55 0 0.0 6.0 0.00 1.91 0.00 96 1012.8
20260507061556 55 336 1.0 6.0 0.00 1.91 0.00 96 1013.3
20260507061056 55 304 0.0 5.0 0.00 1.91 0.00 96 1013.5
20260507060556 55 0 1.0 6.0 0.00 1.91 0.00 96 1013.5
20260507060058 55 0 1.0 6.0 0.00 1.91 0.00 96 1013.6
20260507055556 55 0 0.0 3.0 0.00 1.91 0.00 96 1013.7
20260507055055 55 350 0.0 4.0 0.00 1.91 0.00 96 1013.7
20260507054606 55 311 1.0 4.0 0.00 1.91 0.00 96 1013.8
20260507054056 55 330 0.0 4.0 0.00 1.91 0.00 96 1013.9
20260507053556 56 294 1.0 8.0 0.00 1.91 0.00 96 1013.9
20260507053055 56 41 0.0 8.0 0.00 1.91 0.00 96 1013.4
20260507052555 56 344 0.0 4.0 0.00 1.91 0.00 96 1013.4
20260507052057 56 329 1.0 4.0 0.00 1.91 0.00 96 1013.3
20260507051556 56 0 0.0 4.0 0.00 1.91 0.00 97 1013.5
20260507051056 56 0 1.0 4.0 0.00 1.91 0.00 96 1013.7
20260507050556 56 0 1.0 3.0 0.00 1.91 0.00 96 1013.7
20260507050055 56 0 1.0 3.0 0.00 1.91 0.00 97 1013.8
20260507045559 56 53 1.0 3.0 0.00 1.91 1.91 96 1013.5
20260507045057 56 0 0.0 5.0 0.00 1.91 1.91 97 1013.7
20260507044556 56 321 1.0 5.0 0.00 1.91 1.91 97 1013.9
20260507044056 56 0 1.0 4.0 0.00 1.91 1.91 97 1013.7
20260507043556 56 317 1.0 3.0 0.00 1.91 1.91 97 1013.6
20260507043102 56 352 1.0 3.0 0.00 1.91 1.91 97 1013.7
20260507042557 56 0 0.0 3.0 0.00 1.91 1.91 97 1013.6
20260507042056 56 287 0.0 3.0 0.00 1.91 1.91 97 1013.6
20260507041608 56 336 0.0 2.0 0.00 1.91 1.91 97 1013.3
20260507041057 56 18 0.0 4.0 0.01 1.91 1.91 97 1013.3
20260507040557 56 0 0.0 4.0 0.01 1.91 1.91 97 1013.9
20260507040059 56 316 1.0 5.0 0.01 1.91 1.91 97 1013.8
20260507035556 56 0 0.0 5.0 0.01 1.91 1.91 97 1013.6
20260507035056 56 0 1.0 5.0 0.01 1.91 1.91 96 1013.5
20260507034557 56 0 0.0 4.0 0.01 1.91 1.91 97 1013.4
20260507034056 56 0 1.0 4.0 0.02 1.91 1.91 96 1013.5
20260507033559 56 328 0.0 4.0 0.03 1.91 1.91 97 1013.6
20260507033055 56 0 0.0 4.0 0.04 1.91 1.91 96 1013.9
20260507032556 56 304 0.0 4.0 0.08 1.91 1.91 97 1014.1
20260507032056 57 0 1.0 4.0 0.08 1.91 1.91 97 1013.8
20260507031600 57 38 0.0 4.0 0.08 1.91 1.91 97 1013.5
20260507031059 57 28 1.0 4.0 0.07 1.90 1.90 97 1013.3
20260507030556 57 333 0.0 3.0 0.07 1.90 1.90 97 1013.6
20260507025556 57 0 0.0 3.0 0.07 1.90 1.90 97 1013.5
20260507025057 57 352 1.0 3.0 0.07 1.90 1.90 97 1013.7
20260507024557 57 0 0.0 3.0 0.07 1.90 1.90 96 1013.6
20260507024057 57 311 0.0 2.0 0.06 1.89 1.89 97 1013.6
20260507023558 57 302 0.0 5.0 0.05 1.88 1.88 97 1013.9
20260507023111 57 325 0.0 5.0 0.04 1.87 1.87 97 1013.5
20260507022600 58 323 2.0 5.0 0.00 1.83 1.83 97 1013.5
20260507022057 58 317 1.0 3.0 0.00 1.83 1.83 97 1013.2
20260507021556 58 0 0.0 4.0 0.00 1.83 1.83 97 1013.3
20260507021056 58 0 0.0 4.0 0.00 1.83 1.83 97 1013.3
20260507020556 58 82 0.0 4.0 0.00 1.83 1.83 97 1013.2
20260507020056 58 0 0.0 4.0 0.00 1.83 1.83 97 1013.5
20260507015555 58 0 0.0 4.0 0.00 1.83 1.83 97 1013.5
20260507015057 58 0 0.0 4.0 0.00 1.83 1.83 97 1013.2
20260507014607 58 0 0.0 3.0 0.00 1.83 1.83 97 1013.1
20260507014056 58 0 0.0 3.0 0.00 1.83 1.83 97 1013.0
20260507013557 58 0 0.0 2.0 0.00 1.83 1.83 97 1013.1
20260507013115 58 0 0.0 4.0 0.00 1.83 1.83 97 1012.9
20260507012556 58 352 0.0 4.0 0.00 1.83 1.83 97 1012.9
20260507012057 58 0 0.0 4.0 0.00 1.83 1.83 97 1012.9
20260507011600 58 0 0.0 3.0 0.00 1.83 1.83 97 1013.2
20260507011056 58 0 0.0 2.0 0.00 1.83 1.83 97 1013.0
20260507010555 58 0 0.0 2.0 0.00 1.83 1.83 97 1013.0
20260507010059 58 0 0.0 2.0 0.00 1.83 1.83 97 1013.0
20260507005556 59 0 0.0 2.0 0.00 1.83 1.83 97 1013.1
20260507005056 58 32 0.0 2.0 0.00 1.83 1.83 97 1013.6
20260507004605 59 0 0.0 3.0 0.00 1.83 1.83 97 1013.6
20260507004056 59 0 0.0 4.0 0.00 1.83 1.83 97 1013.6
20260507003555 59 0 1.0 4.0 0.00 1.83 1.83 97 1013.7
20260507003058 59 26 0.0 5.0 0.00 1.83 1.83 97 1013.7
20260507002559 59 0 0.0 5.0 0.01 1.83 1.83 97 1013.5
20260507002055 59 44 1.0 5.0 0.01 1.83 1.83 97 1013.5
20260507001620 59 0 0.0 3.0 0.01 1.83 1.83 97 1013.3
20260507001056 59 0 0.0 4.0 0.01 1.83 1.83 97 1013.5
20260507000556 60 0 1.0 4.0 0.01 1.83 1.83 97 1013.3
20260507000101 60 31 1.0 4.0 0.01 1.83 1.83 97 1013.3
20260506235557 60 337 1.0 8.0 0.01 1.83 1.83 97 1013.4
20260506235056 61 336 1.0 8.0 0.02 1.83 1.83 97 1013.3
20260506234558 61 293 2.0 8.0 0.03 1.83 1.83 97 1013.3
20260506234057 62 319 1.0 3.0 0.04 1.83 1.83 97 1013.5
20260506233559 62 352 0.0 3.0 0.04 1.83 1.83 97 1013.3
20260506233102 62 0 0.0 3.0 0.04 1.83 1.83 97 1013.6
20260506232556 62 303 0.0 5.0 0.04 1.82 1.82 97 1013.4
20260506232056 62 283 1.0 5.0 0.05 1.82 1.82 97 1012.9
20260506231557 62 24 2.0 6.0 0.06 1.82 1.82 97 1012.8
20260506231056 63 331 1.0 6.0 0.06 1.82 1.82 97 1013.0
20260506230555 63 13 2.0 6.0 0.06 1.82 1.82 97 1013.2
20260506225559 64 326 1.0 6.0 0.06 1.82 1.82 97 1013.1